| time (UTC) | temp F | wind direction | speed MPH | gust MPH | rain 1hr in | rain 24hr in | rain mn in | humidity % | barometer mb |
| 20260509024224 | 74 | 15 | 0.0 | 2.0 | 0.00 | 0.00 | 0.00 | 46 | 1018.3 |
| 20260509023223 | 75 | 15 | 0.0 | 2.0 | 0.00 | 0.00 | 0.00 | 45 | 1018.4 |
| 20260509022223 | 75 | 15 | 0.0 | 5.0 | 0.00 | 0.00 | 0.00 | 44 | 1018.3 |
| 20260509021223 | 75 | 15 | 1.0 | 9.0 | 0.00 | 0.00 | 0.00 | 42 | 1018.2 |
| 20260509020224 | 76 | 16 | 2.0 | 7.0 | 0.00 | 0.00 | 0.00 | 42 | 1018.2 |
| 20260509015223 | 76 | 16 | 0.0 | 4.0 | 0.00 | 0.00 | 0.00 | 44 | 1018.1 |
| 20260509013224 | 77 | 15 | 5.0 | 8.0 | 0.00 | 0.00 | 0.00 | 43 | 1018.0 |
| 20260509012223 | 77 | 5 | 4.0 | 11.0 | 0.00 | 0.00 | 0.00 | 40 | 1017.9 |
| 20260509011223 | 78 | 38 | 4.0 | 9.0 | 0.00 | 0.00 | 0.00 | 40 | 1018.1 |
| 20260509010224 | 78 | 5 | 2.0 | 11.0 | 0.00 | 0.00 | 0.00 | 43 | 1018.2 |
| 20260509005224 | 78 | 19 | 9.0 | 11.0 | 0.00 | 0.00 | 0.00 | 38 | 1018.1 |
| 20260509003223 | 79 | 355 | 5.0 | 10.0 | 0.00 | 0.00 | 0.00 | 40 | 1018.2 |
| 20260509002224 | 80 | 17 | 7.0 | 11.0 | 0.00 | 0.00 | 0.00 | 38 | 1018.2 |
| 20260509001223 | 80 | 14 | 7.0 | 8.0 | 0.00 | 0.00 | 0.00 | 39 | 1018.3 |
| 20260509000226 | 80 | 17 | 4.0 | 11.0 | 0.00 | 0.00 | 0.00 | 40 | 1018.2 |
| 20260508235224 | 80 | 37 | 4.0 | 8.0 | 0.00 | 0.00 | 0.00 | 39 | 1018.5 |
| 20260508234224 | 80 | 30 | 3.0 | 11.0 | 0.00 | 0.00 | 0.00 | 42 | 1018.6 |
| 20260508232224 | 81 | 20 | 1.0 | 9.0 | 0.00 | 0.00 | 0.00 | 40 | 1018.6 |
| 20260508230223 | 81 | 19 | 8.0 | 11.0 | 0.00 | 0.00 | 0.00 | 36 | 1018.7 |
| 20260508225224 | 81 | 36 | 7.0 | 10.0 | 0.00 | 0.00 | 0.00 | 34 | 1019.0 |
| 20260508224223 | 81 | 39 | 4.0 | 11.0 | 0.00 | 0.00 | 0.00 | 39 | 1019.0 |
| 20260508222223 | 81 | 47 | 4.0 | 9.0 | 0.00 | 0.00 | 0.00 | 33 | 1019.0 |
| 20260508221224 | 81 | 32 | 3.0 | 8.0 | 0.00 | 0.00 | 0.00 | 35 | 1019.1 |
| 20260508220224 | 81 | 30 | 1.0 | 9.0 | 0.00 | 0.00 | 0.00 | 35 | 1019.2 |
| 20260508215223 | 81 | 38 | 0.0 | 8.0 | 0.00 | 0.00 | 0.00 | 34 | 1019.3 |
| 20260508212223 | 81 | 355 | 6.0 | 9.0 | 0.00 | 0.00 | 0.00 | 35 | 1019.6 |
| 20260508211223 | 81 | 334 | 2.0 | 5.0 | 0.00 | 0.00 | 0.00 | 41 | 1019.6 |
| 20260508210224 | 80 | 331 | 1.0 | 5.0 | 0.00 | 0.00 | 0.00 | 40 | 1019.6 |
| 20260508205224 | 80 | 327 | 3.0 | 6.0 | 0.00 | 0.00 | 0.00 | 39 | 1019.8 |
| 20260508204223 | 80 | 318 | 0.0 | 4.0 | 0.00 | 0.00 | 0.00 | 41 | 1019.8 |
| 20260508203223 | 80 | 318 | 0.0 | 5.0 | 0.00 | 0.00 | 0.00 | 45 | 1019.9 |
| 20260508202223 | 80 | 317 | 2.0 | 5.0 | 0.00 | 0.00 | 0.00 | 45 | 1019.9 |
| 20260508201223 | 80 | 315 | 3.0 | 4.0 | 0.00 | 0.00 | 0.00 | 47 | 1020.3 |
| 20260508194223 | 78 | 323 | 0.0 | 4.0 | 0.00 | 0.00 | 0.00 | 43 | 1020.4 |
| 20260508193223 | 77 | 325 | 0.0 | 2.0 | 0.00 | 0.00 | 0.00 | 42 | 1020.4 |
| 20260508192223 | 76 | 325 | 0.0 | 1.0 | 0.00 | 0.00 | 0.00 | 43 | 1020.6 |
| 20260508191223 | 76 | 325 | 0.0 | 4.0 | 0.00 | 0.00 | 0.00 | 46 | 1020.5 |
| 20260508190223 | 75 | 328 | 4.0 | 4.0 | 0.00 | 0.00 | 0.00 | 49 | 1020.8 |
| 20260508184223 | 75 | 254 | 0.0 | 1.0 | 0.00 | 0.00 | 0.00 | 52 | 1020.8 |
| 20260508183223 | 74 | 256 | 0.0 | 5.0 | 0.00 | 0.00 | 0.00 | 59 | 1021.2 |
| 20260508181223 | 72 | 258 | 0.0 | 1.0 | 0.00 | 0.00 | 0.00 | 61 | 1021.3 |
| 20260508180223 | 72 | 258 | 0.0 | 4.0 | 0.00 | 0.00 | 0.00 | 64 | 1021.6 |
| 20260508175223 | 70 | 261 | 0.0 | 4.0 | 0.00 | 0.00 | 0.00 | 62 | 1021.5 |
| 20260508174223 | 68 | 267 | 0.0 | 1.0 | 0.00 | 0.00 | 0.00 | 64 | 1021.6 |
| 20260508173223 | 67 | 267 | 0.0 | 4.0 | 0.00 | 0.00 | 0.00 | 63 | 1021.6 |
| 20260508172223 | 67 | 265 | 0.0 | 1.0 | 0.00 | 0.00 | 0.00 | 71 | 1021.8 |
| 20260508171223 | 66 | 265 | 0.0 | 0.0 | 0.00 | 0.00 | 0.00 | 70 | 1021.6 |
| 20260508165223 | 63 | 265 | 0.0 | 1.0 | 0.00 | 0.00 | 0.00 | 76 | 1022.1 |
| 20260508164223 | 62 | 260 | 0.0 | 1.0 | 0.00 | 0.00 | 0.00 | 80 | 1022.0 |
| 20260508163223 | 61 | 260 | 0.0 | 4.0 | 0.00 | 0.00 | 0.00 | 81 | 1022.1 |
| 20260508162223 | 60 | 254 | 0.0 | 3.0 | 0.00 | 0.00 | 0.00 | 85 | 1021.9 |
| 20260508161223 | 58 | 250 | 0.0 | 0.0 | 0.00 | 0.00 | 0.00 | 87 | 1021.7 |
| 20260508160223 | 56 | 250 | 0.0 | 0.0 | 0.00 | 0.00 | 0.00 | 90 | 1021.6 |
| 20260508155223 | 55 | 250 | 0.0 | 0.0 | 0.00 | 0.00 | 0.00 | 92 | 1022.0 |
| 20260508154223 | 53 | 250 | 0.0 | 1.0 | 0.00 | 0.00 | 0.00 | 93 | 1021.9 |
| 20260508153224 | 52 | 250 | 0.0 | 1.0 | 0.00 | 0.00 | 0.00 | 94 | 1022.0 |
| 20260508152223 | 51 | 250 | 0.0 | 1.0 | 0.00 | 0.00 | 0.00 | 94 | 1021.8 |
| 20260508151223 | 51 | 249 | 0.0 | 0.0 | 0.00 | 0.00 | 0.00 | 95 | 1021.9 |
| 20260508150223 | 49 | 249 | 0.0 | 0.0 | 0.00 | 0.00 | 0.00 | 95 | 1021.7 |
| 20260508145223 | 48 | 249 | 0.0 | 0.0 | 0.00 | 0.00 | 0.00 | 95 | 1022.2 |
| 20260508144223 | 47 | 249 | 0.0 | 0.0 | 0.00 | 0.00 | 0.00 | 95 | 1022.0 |
| 20260508143223 | 46 | 249 | 0.0 | 0.0 | 0.00 | 0.00 | 0.00 | 94 | 1021.9 |
| 20260508142223 | 45 | 249 | 0.0 | 0.0 | 0.00 | 0.00 | 0.00 | 94 | 1021.8 |
| 20260508141223 | 44 | 249 | 0.0 | 0.0 | 0.00 | 0.00 | 0.00 | 93 | 1021.7 |
| 20260508140223 | 44 | 249 | 0.0 | 0.0 | 0.00 | 0.00 | 0.00 | 92 | 1021.6 |
| 20260508135223 | 44 | 249 | 0.0 | 0.0 | 0.00 | 0.00 | 0.00 | 92 | 1021.9 |
| 20260508134223 | 44 | 249 | 0.0 | 0.0 | 0.00 | 0.00 | 0.00 | 92 | 1021.7 |
| 20260508133223 | 45 | 238 | 0.0 | 0.0 | 0.00 | 0.00 | 0.00 | 92 | 1021.6 |
| 20260508132223 | 45 | 238 | 0.0 | 0.0 | 0.00 | 0.00 | 0.00 | 92 | 1021.4 |
| 20260508131223 | 45 | 246 | 0.0 | 0.0 | 0.00 | 0.00 | 0.00 | 92 | 1021.4 |
| 20260508130223 | 45 | 244 | 0.0 | 0.0 | 0.00 | 0.00 | 0.00 | 92 | 1021.4 |
| 20260508125223 | 45 | 244 | 0.0 | 0.0 | 0.00 | 0.00 | 0.00 | 92 | 1021.3 |
| 20260508123223 | 46 | 244 | 0.0 | 0.0 | 0.00 | 0.00 | 0.00 | 92 | 1021.2 |
| 20260508122223 | 46 | 244 | 0.0 | 0.0 | 0.00 | 0.00 | 0.00 | 92 | 1021.2 |
| 20260508121223 | 46 | 244 | 0.0 | 0.0 | 0.00 | 0.00 | 0.00 | 92 | 1021.2 |
| 20260508120223 | 46 | 244 | 0.0 | 0.0 | 0.00 | 0.00 | 0.00 | 92 | 1021.1 |
| 20260508114223 | 46 | 244 | 0.0 | 0.0 | 0.00 | 0.00 | 0.00 | 92 | 1021.4 |
| 20260508113223 | 46 | 244 | 0.0 | 0.0 | 0.00 | 0.00 | 0.00 | 91 | 1021.4 |
| 20260508112223 | 46 | 244 | 0.0 | 0.0 | 0.00 | 0.00 | 0.00 | 89 | 1021.2 |
| 20260508111223 | 48 | 244 | 0.0 | 0.0 | 0.00 | 0.00 | 0.00 | 91 | 1021.4 |
| 20260508110223 | 48 | 244 | 0.0 | 0.0 | 0.00 | 0.00 | 0.00 | 91 | 1021.5 |
| 20260508105223 | 48 | 244 | 0.0 | 0.0 | 0.00 | 0.00 | 0.00 | 91 | 1021.5 |
| 20260508104223 | 48 | 244 | 0.0 | 0.0 | 0.00 | 0.00 | 0.00 | 91 | 1021.3 |
| 20260508103223 | 48 | 244 | 0.0 | 0.0 | 0.00 | 0.00 | 0.00 | 91 | 1021.5 |
| 20260508102223 | 49 | 244 | 0.0 | 0.0 | 0.00 | 0.00 | 0.00 | 91 | 1021.4 |
| 20260508101223 | 49 | 244 | 0.0 | 0.0 | 0.00 | 0.00 | 0.00 | 90 | 1021.3 |
| 20260508100223 | 49 | 244 | 0.0 | 0.0 | 0.00 | 0.00 | 0.00 | 91 | 1021.3 |
| 20260508095223 | 50 | 244 | 0.0 | 0.0 | 0.00 | 0.00 | 0.00 | 91 | 1021.2 |
| 20260508094223 | 50 | 244 | 0.0 | 0.0 | 0.00 | 0.00 | 0.00 | 90 | 1021.3 |
| 20260508093223 | 50 | 244 | 0.0 | 0.0 | 0.00 | 0.00 | 0.00 | 90 | 1021.3 |
| 20260508092223 | 51 | 244 | 0.0 | 0.0 | 0.00 | 0.00 | 0.00 | 90 | 1021.2 |
| 20260508091223 | 51 | 244 | 0.0 | 0.0 | 0.00 | 0.00 | 0.00 | 90 | 1021.2 |
| 20260508090223 | 51 | 244 | 0.0 | 0.0 | 0.00 | 0.00 | 0.00 | 90 | 1021.2 |
| 20260508085223 | 51 | 244 | 0.0 | 0.0 | 0.00 | 0.00 | 0.00 | 89 | 1021.1 |
| 20260508084223 | 51 | 244 | 0.0 | 0.0 | 0.00 | 0.00 | 0.00 | 88 | 1021.0 |
| 20260508083223 | 52 | 244 | 0.0 | 0.0 | 0.00 | 0.00 | 0.00 | 88 | 1021.1 |
| 20260508082223 | 52 | 244 | 0.0 | 0.0 | 0.00 | 0.00 | 0.00 | 88 | 1021.2 |
| 20260508081223 | 52 | 244 | 0.0 | 0.0 | 0.00 | 0.00 | 0.00 | 88 | 1021.3 |
| 20260508080223 | 53 | 244 | 0.0 | 0.0 | 0.00 | 0.00 | 0.00 | 87 | 1021.2 |
| 20260508075223 | 53 | 244 | 0.0 | 0.0 | 0.00 | 0.00 | 0.00 | 87 | 1020.8 |
| 20260508072223 | 54 | 244 | 0.0 | 0.0 | 0.00 | 0.00 | 0.00 | 86 | 1020.8 |
| 20260508071223 | 54 | 244 | 0.0 | 0.0 | 0.00 | 0.00 | 0.00 | 86 | 1020.8 |
| 20260508070223 | 54 | 244 | 0.0 | 0.0 | 0.00 | 0.00 | 0.00 | 85 | 1020.7 |
| 20260508065223 | 55 | 244 | 0.0 | 0.0 | 0.00 | 0.00 | 0.00 | 84 | 1020.5 |
| 20260508064223 | 56 | 244 | 0.0 | 0.0 | 0.00 | 0.00 | 0.00 | 84 | 1020.5 |
| 20260508061223 | 57 | 244 | 0.0 | 0.0 | 0.00 | 0.00 | 0.00 | 83 | 1020.5 |
| 20260508060223 | 57 | 244 | 0.0 | 0.0 | 0.00 | 0.00 | 0.00 | 83 | 1020.4 |
| 20260508055223 | 57 | 244 | 0.0 | 0.0 | 0.00 | 0.00 | 0.00 | 82 | 1019.9 |
| 20260508054223 | 58 | 244 | 0.0 | 0.0 | 0.00 | 0.00 | 0.00 | 80 | 1019.9 |
| 20260508053222 | 59 | 244 | 0.0 | 1.0 | 0.00 | 0.00 | 0.00 | 79 | 1019.8 |
| 20260508052222 | 60 | 244 | 1.0 | 1.0 | 0.00 | 0.00 | 0.00 | 77 | 1019.8 |
| 20260508051222 | 61 | 244 | 0.0 | 0.0 | 0.00 | 0.00 | 0.00 | 75 | 1019.9 |
| 20260508044222 | 62 | 244 | 0.0 | 0.0 | 0.00 | 0.00 | 0.00 | 73 | 1019.0 |
| 20260508042222 | 64 | 244 | 0.0 | 0.0 | 0.00 | 0.00 | 0.00 | 70 | 1019.1 |
| 20260508040222 | 66 | 244 | 0.0 | 0.0 | 0.00 | 0.00 | 0.00 | 69 | 1019.1 |
| 20260508035223 | 67 | 244 | 0.0 | 0.0 | 0.00 | 0.00 | 0.00 | 66 | 1018.9 |
| 20260508034222 | 68 | 244 | 0.0 | 0.0 | 0.00 | 0.00 | 0.00 | 65 | 1018.6 |
| 20260508033223 | 69 | 244 | 0.0 | 0.0 | 0.00 | 0.00 | 0.00 | 63 | 1018.6 |
| 20260508032222 | 70 | 244 | 0.0 | 0.0 | 0.00 | 0.00 | 0.00 | 62 | 1018.5 |
| 20260508031223 | 72 | 244 | 0.0 | 0.0 | 0.00 | 0.00 | 0.00 | 61 | 1018.4 |
| 20260508025222 | 74 | 254 | 0.0 | 2.0 | 0.00 | 0.00 | 0.00 | 54 | 1018.1 |